Starlink 34098

operational
NORAD ID: 64080 Int'l Des: 2025-107 Owner: SPXS Country: US Constellation: starlink
LEOCIRCULAR

About Starlink 34098

Description loading...

Live Position

Loading 3D Globe...

Upcoming Passes

Altitude History

Altitude vs Time

uPlot chart will show altitude changes over time

Two-Line Element Set

1 64080U 25107S 26063.53042498 .00045288 00000-0 16439-2 0 9997
2 64080 43.0016 230.4899 0001842 272.4317 87.6324 15.27604409 45333
Epoch: Mar 4, 2026 • Age: 19 hours

Current Status

Altitude 485.4 km
Velocity 7.62 km/s
Sub-Earth Point -15.59°S, 125.58°E
Launch Date May 21, 2025
Age 0.7 years
Type internet

Technical Details

Classification Payload
Mass 575.00 kg
Dry Mass 530.00 kg
Total Mass 575.00 kg
Length 0.30 m
Diameter 4.10 m
Span 29.00 m
Shape Box + pan
Manufacturer SPXS
Bus Type Starlink V2MO
Phase Status In Orbit
Owner/State SPXS/US

Large Constellations

Loading constellations...